Content
SEND FEEDBACK

Daily
Averages
Monthly
Summary
United States of America

GENOA, NEVADA


Home > North America > United States > Nevada
Elevation: 733 feet     Latitude: 38 59N     Longitude: 119 53W

WEATHER
 
SELECT A DAY
Number of Records: 174,306;   Date Range: 1/1/95 - 7/20/14
 
SHARE

PRINT THIS DATA

[ ← Previous Day ]
WEATHER ALMANAC - NOVEMBER 1, 2013
[ Next Day → ]
[ °C ]   °F
Weather ElementAverageHighLow
Temperature39.4 °F61 °F (3:53 pm)24.1 °F (7:53 am)
Dewpoint27.3 °F36 °F (5:53 pm)19 °F (7:53 am)
Humidity65.2 %82 % (11:53 pm)35 % (3:53 pm)
Barometer30.24 in30.36 in (8:53 am)30.15 in (11:53 pm)
Wind Speed2 mph5.8 mph (8:53 am)
Weather ElementAverage
Visibility10 mi
Wind DirectionNE (45.7 °)

Weather ElementTotal
Precipitation---
Heating Degree Days22.5 (Base 65)
Averaged from 23 records on November 1, 2013
WEATHER CONDITIONS BREAKOUT
WIND DIRECTION BREAKOUT
WEATHER BY HOUR - NOVEMBER 1, 2013
[ °C ]   °F
Local TimeTemperatureDewpointHumidityBarometerVisibilityWind DirectionWind SpeedGust SpeedPrecipitationEventsConditions
1:53 AM28.0 °F23.0 °F81 %30.25 in10.0 miCalmClear
2:53 AM28.0 °F21.9 °F78 %30.25 in10.0 miCalmClear
3:53 AM27.0 °F21.9 °F81 %30.23 in10.0 miSSW (200°)3.5 mphClear
4:53 AM26.1 °F21.0 °F81 %30.25 in10.0 miSouth (190°)3.5 mphClear
5:53 AM25.0 °F19.9 °F81 %30.29 in10.0 miSouth (190°)3.5 mphClear
6:53 AM26.1 °F21.0 °F81 %30.33 in10.0 miCalmClear
7:53 AM24.1 °F19.0 °F81 %30.35 in10.0 miCalmClear
8:53 AM30.0 °F23.0 °F75 %30.36 in10.0 miSouth (180°)5.8 mphClear
9:53 AM37.9 °F28.0 °F68 %30.32 in10.0 miCalmClear
10:53 AM50.0 °F28.9 °F44 %30.27 in10.0 miCalmClear
11:53 AM54.0 °F32.0 °F43 %30.25 in10.0 miNE (50°)5.8 mphClear
12:53 PM57.0 °F32.0 °F39 %30.22 in10.0 miNNE (20°)5.8 mphClear
1:53 PM59.0 °F33.1 °F38 %30.19 in10.0 miVariable5.8 mphClear
2:53 PM59.0 °F34.0 °F39 %30.18 in10.0 miVariable3.5 mphClear
3:53 PM61.0 °F33.1 °F35 %30.17 in10.0 miNNE (30°)4.6 mphClear
4:53 PM57.0 °F34.0 °F42 %30.17 in10.0 miCalmClear
5:53 PM48.0 °F36.0 °F63 %30.20 in10.0 miCalmClear
6:53 PM43.0 °F32.0 °F65 %30.21 in10.0 miCalmClear
7:53 PM39.0 °F30.0 °F70 %30.24 in10.0 miCalmClear
8:53 PM35.1 °F28.0 °F76 %30.22 in10.0 miCalmClear
9:53 PM33.1 °F27.0 °F78 %30.20 in10.0 miSouth (190°)3.5 mphClear
10:53 PM30.9 °F25.0 °F79 %30.17 in10.0 miCalmClear
11:53 PM28.9 °F24.1 °F82 %30.15 in10.0 miCalmClear
Hourly data recorded from KTVL, located miles away from Genoa, Nevada







STORIES FROM OUR PARTNERS